STARLINK-1070 (44956 NORAD) Tracking and Keplerian Element Data

This shows tracking and keplerian element data for the satellite.

Feedback or suggestion? Click here.




ElementValue
Catalog44956
NameSTARLINK-1070
Epoch Orbit175
Epoch Day189.91668981
Epoch Year2020
RAAN242.6754
Inclination52.9992
Eccentricity0.0001235
Argument of Perigee107.7552
Mean Anonmoly181.3778
Mean Motion15.05580373
Decay Rate1.938E-05
L11 44956U 20001AU 20189.91668981 .00001938 00000-0 15211-3 0 9993
L22 44956 52.9992 242.6754 0001235 107.7552 181.3778 15.05580373 1759

Live tracking and technical data element details for STARLINK-1070 (NORAD 44956). STARLINK-1070 can be tracked NOW for your location showing map with azimuth and elevation plus other details from your city location.

Track the satellite on the map from your city or location and see movement details for azimuth, elevation, latitude, longitude, range, height, and movement on the map or in text.







IsCatalogInMostPopularTable: catalog: 44956, numindb: 37
Update: records affected: 1



GetName: 44956 STARLINK-1070

Hit Count: updated at: Fri, 10 Jul 2020 02:46:41 GMT